AEHF-5 (USA 292)

Last updated on Mon Sep 15 2025 00:02:50 GMT+0000 (Coordinated Universal Time)

1 44481U 19051A 25257.10435867 -.00000269 00000+0 00000+0 0 9998 2 44481 1.8249 319.2196 0064996 7.4151 157.3483 1.00272681 22495
UTC large
Height (km)
Speed (km/s)
/
Latitude / Longitude
Inclination (degrees)
Orbital Period (minutes)
Azimuth
Elevation
Range (km)
Doppler Factor

Next 0 passes for location: London (51.5072 / 0.1276)

Sorry there are no passes over London.